NOAA NWS Hourly Roundups by Site

Regional Weather Roundup for Green Bay, WI

To Select Another Site Choose from List

Select Site:  

000
ASUS43 KGRB 231011
RWRGRB

NORTH-CENTRAL AND NORTHEAST WISCONSIN REGIONAL WEATHER ROUNDUP
NATIONAL WEATHER SERVICE GREEN BAY WI
500 AM CDT SAT MAR 23 2019

WIZ005-009-010>012-018-019-231100-
NORTH CENTRAL WISCONSIN

CITY           SKY/WX    TMP DP  RH WIND       PRES   REMARKS
IRONWOOD       FAIR      13  11  92 CALM      30.21R
MANITOWISH WTR NOT AVBL
ARBOR VITAE    FAIR      17  15  92 CALM      30.20S
EAGLE RIVER    FAIR      12   9  88 CALM      30.19S
LAND O LAKES   FAIR      10   8  91 CALM      30.21S
RHINELANDER    FAIR      16  11  80 CALM      30.20S
PHILLIPS       FAIR      14  13  97 CALM      30.21S
ANTIGO         FAIR      19  17  93 CALM      30.22R
TOMAHAWK       FAIR      12  10  90 CALM      30.21F
MERRILL        FAIR      15  14  96 CALM      30.23S
$$

WIZ013-073-231100-
NORTHEAST WISCONSIN

CITY           SKY/WX    TMP DP  RH WIND       PRES   REMARKS
IRON MOUNTAIN  FAIR      17  12  80 CALM      30.21R
MARINETTE      FAIR      19  17  92 W3        30.28R
OCONTO         FAIR      18  16  91 CALM      30.27S
$$

WIZ017-030-035>037-045-231100-
CENTRAL WISCONSIN

CITY           SKY/WX    TMP DP  RH WIND       PRES   REMARKS
MEDFORD        FAIR      18  15  90 CALM      30.22R
WAUSAU         FAIR      21  18  88 CALM      30.21F
MOSINEE        FAIR      27  18  69 CALM      30.23S
MARSHFIELD     FAIR      24  18  77 CALM      30.21S
WISC RAPIDS    FAIR      22  15  75 CALM      30.24S
STEVENS POINT  FAIR      17  17  98 CALM      30.24F
WAUPACA        FAIR      24  22  89 CALM      30.26S
SHAWANO        FAIR      21  16  79 CALM      30.25F
CLINTONVILLE   FAIR      24  21  91 CALM      30.26S
WAUTOMA        FAIR      20  18  92 CALM      30.26
$$

WIZ038-039-048-051-231100-
FOX VALLEY

CITY           SKY/WX    TMP DP  RH WIND       PRES   REMARKS
NWS GREEN BAY  FAIR      25  21  85 CALM      30.27S
APPLETON       FAIR      25  23  93 SE3       30.24S
OSHKOSH        FAIR      23  21  92 S5        30.25S
FOND DU LAC    FAIR      24  22  91 S5        30.26S
$$

WIZ022-050-052-231100-
EAST CENTRAL WISCONSIN

CITY           SKY/WX    TMP DP  RH WIND       PRES   REMARKS
EPHRAIM        FAIR      22  19  91 W5        30.24S
WASHINGTON ISL FAIR      17  16  94 CALM      30.25S
STURGEON BAY   FAIR      19  17  92 CALM      30.27S
MANITOWOC      FAIR      21  19  92 W3        30.29R
SHEBOYGAN      FAIR      25  23  92 CALM      30.27S
$$

LMZ563-521-522-541>543-231100-
LAKESHORE

STATION/POSITION TIME  TEMP    WIND        PRES    VSBY  WAVE
                       AIR SEA DIR/SP/G                  HT/PER
                 (UTC) (F)     (DEG/KT/KT) (MB)    (MI)  (FT/S)
SHEBOYGAN LKSHOR 1000   28     280/  5/  5 1026.1R
KEWAUNEE LKSHORE 0948   24                 1024.0R
NORTHPORT PIER   1004   22     240/  2/  3 1024.4
CHAMBERS ISLAND  0940   18        CALM     1023.7F
MENOMINEE LKSHOR 0948   23 35              1024.5R
$$


 

View Past Reports for Green Bay, WI.

Products Courtesy of NOAA-NWS
NWS Information Parsing Script by Ken True at Saratoga Weather - Script by SE Lincoln Weather.